This demonstration page uses our WeatherBlox Daily Observations layout. Learn more.

Left ArrowRight Arrow

Hourly Observations for May 22, 2016

Temp ( °F °C ) Dew Point ( °F °C ) Humidity (%) Winds ( mph kmh ) Pressure ( in mb ) Visibility ( mi km ) Precip ( " mm )
12:53 am 00:53 Clear 51 10.6 30 -1.1 44 44 W 3 6 30.04 1017 7 11 N/A
1:53 am 01:53 Clear with Mist and Fog 48 8.9 47 8.3 96 96 N N/A 30.03 1017 6 10 N/A
2:53 am 02:53 Clear 48 8.9 47 8.3 96 96 N N/A 30.03 1017 7 11 N/A
3:08 am 03:08 Clear with Mist and Fog 47 8.3 46 7.8 97 97 N N/A 30.06 1018 2 2 N/A
3:18 am 03:18 Clear with Mist and Fog 46 7.8 45 7.2 96 96 NW 3 6 30.06 1018 4 6 N/A
3:53 am 03:53 Clear with Mist and Fog 46 7.8 46 7.8 100 100 N N/A 30.02 1017 5 8 N/A
4:53 am 04:53 Clear with Mist and Fog 46 7.8 45 7.2 96 96 N N/A 30.03 1017 6 10 N/A
5:09 am 05:09 Clear with Mist and Fog 45 7.2 44 6.7 97 97 N N/A 30.06 1018 2 3 N/A
5:17 am 05:17 Clear with Mist and Fog 44 6.7 43 6.1 96 96 N N/A 30.06 1018 3 5 N/A
5:21 am 05:21 Mostly Clear with Mist and Fog 44 6.7 43 6.1 96 96 N N/A 30.06 1018 2 3 N/A
5:24 am 05:24 Mostly Cloudy with Mist and Fog 44 6.7 43 6.1 96 96 N N/A 30.06 1018 1 2 N/A
5:36 am 05:36 Mostly Clear with Mist and Fog 45 7.2 44 6.7 97 97 N N/A 30.06 1018 2 3 N/A
5:41 am 05:41 Clear with Mist and Fog 45 7.2 44 6.7 97 97 N N/A 30.06 1018 3 5 N/A
5:53 am 05:53 Clear with Mist and Fog 45 7.2 44 6.7 97 97 N N/A 30.03 1017 3 5 N/A
6:00 am 06:00 Clear with Mist and Fog 45 7.2 44 6.7 97 97 N N/A 30.06 1018 2 3 N/A
6:06 am 06:06 Clear with Mist and Fog 44 6.7 44 6.7 100 100 N N/A 30.06 1018 1 1 N/A
6:26 am 06:26 Sunny with Mist and Fog 44 6.7 43 6.1 96 96 N N/A 30.06 1018 1 2 N/A
6:38 am 06:38 Sunny with Mist and Fog 44 6.7 43 6.1 96 96 N N/A 30.06 1018 3 5 N/A
6:53 am 06:53 Sunny with Mist and Fog 46 7.8 45 7.2 96 96 N N/A 30.05 1018 5 8 N/A
7:53 am 07:53 Sunny 52 11.1 50 10 93 93 N N/A 30.06 1018 10 16 N/A
8:53 am 08:53 Sunny 56 13.3 51 10.6 84 84 N N/A 30.05 1018 10 16 N/A
9:53 am 09:53 Partly Cloudy 65 18.3 49 9.4 56 56 VRB 3 6 30.05 1018 10 16 N/A
10:53 am 10:53 Sunny 69 20.6 47 8.3 45 45 NNW 6 9 30.04 1017 10 16 N/A
11:53 am 11:53 Mostly Cloudy 72 22.2 47 8.3 41 41 NNW 8 13 30.02 1017 10 16 N/A
12:53 pm 12:53 Sunny 76 24.4 47 8.3 36 36 NNW 9 15 30.00 1016 10 16 N/A
1:53 pm 13:53 Mostly Cloudy 77 25 47 8.3 35 35 NNW 12 19 29.99 1016 10 16 N/A
2:53 pm 14:53 Mostly Sunny 77 25 45 7.2 32 32 NNW 17 28 29.98 1015 10 16 N/A
3:53 pm 15:53 Partly Cloudy 76 24.4 45 7.2 33 33 N 12 19 29.96 1015 10 16 N/A
4:53 pm 16:53 Partly Cloudy 78 25.6 46 7.8 32 32 N 14 22 29.95 1014 10 16 N/A
5:53 pm 17:53 Sunny 77 25 47 8.3 35 35 N 12 19 29.95 1014 10 16 N/A
6:53 pm 18:53 Sunny 76 24.4 45 7.2 33 33 N 8 13 29.94 1014 10 16 N/A
7:53 pm 19:53 Sunny 73 22.8 44 6.7 35 35 NNE 8 13 29.95 1014 10 16 N/A
8:53 pm 20:53 Clear 68 20 46 7.8 45 45 NE 6 9 29.95 1014 10 16 N/A
9:53 pm 21:53 Clear 58 14.4 49 9.4 72 72 NE 5 7 29.97 1015 10 16 N/A
10:53 pm 22:53 Clear 60 15.6 48 8.9 65 65 ENE 6 9 29.99 1016 10 16 N/A
11:53 pm 23:53 Clear 54 12.2 51 10.6 90 90 ENE 3 6 30.01 1016 10 16 N/A

Powered by AerisWeather